www.pogodaiklimat.ru

Погода и климат >> Архив погоды >> КНДР >> Сонбонг


ПОГОДА в Сонбонге

  • Прогноз погоды в Сонбонге
  • Монитор погоды в Сонбонге

АРХИВ ПОГОДЫ в Сонбонге

Время (UTC), дата Ветер
(напр.,м/с)
 
Видим.   Явления Облачность Т
(С)
Тd
(С)
f
(%)
Тe
(С)
Тes
(С)
Комфортность P
(гПа)
Po
(гПа)
Тmin
(С)
Tmax
(С)
R
(мм)
R24
(мм)
S
(см)
09 15.08 штиль 0 3800 м дождь 10/0 100 м
[As op]
+18.7 +18.5 99 +20 +20 999.4 999.0 25
12 15.08 штиль 0 3800 м дождь 10/0 100 м
[As op]
+18.5 +18.4 99 +19 +19 998.7 998.3 +20.5 32
15 15.08 штиль 0 3800 м дождь 10/0 100 м
[As op]
+18.6 +18.4 99 +20 +20 996.2 995.8 12
18 15.08 ЮЗ 1 3800 м дождь 10/0 100 м
[As op]
+18.9 +18.7 99 +22 +22 комфорт 994.5 994.1 17
21 15.08 штиль 0 3800 м дождь 10/0 100 м
[As op]
+19.1 +19.0 99 +21 +21 комфорт 993.5 993.1 25
00 16.08 штиль 0 4800 м дождь 10/0 100 м
[As op]
+19.3 +19.0 98 +21 +24 комфорт 992.8 992.4 +18.5 18
03 16.08 штиль 0 8000 м слаб. дождь 10/0 100 м
[As op]
+21.3 +21.0 98 +27 +31 душно 993.0 992.6 8
06 16.08 ЮВ 3 28 км 10/10 600 м
[Sc]
+20.5 +20.2 98 +25 +25 комфорт 991.4 991.0 +22.5 0.0
09 16.08 ЮВ 1 20 км 8/8 600 м
[Sc]
+21.9 +20.4 91 +28 +28 душно 991.3 990.9
12 16.08 штиль 0 20 км 8/8 600 м
[Sc]
+20.5 +20.0 97 +25 +25 комфорт 992.4 992.0 +23.2 8
15 16.08 штиль 0 20 км 10/10 600 м
[Sc]
+20.4 +20.0 98 +24 +24 комфорт 993.3 992.9
18 16.08 штиль 0 18 км 10/10 600 м
[Sc]
+20.4 +20.2 99 +24 +24 комфорт 993.6 993.2
21 16.08 штиль 0 26 км 10/8 600 м
[Sc Ci sp]
+19.4 +19.2 99 +22 +22 комфорт 993.5 993.1
00 17.08 штиль 0 26 км 10/8 600 м
[Sc]
+25.1 +21.7 81 +32 +33 очень
душно
995.5 995.1 +18.9 0.0
03 17.08 ЮВ 2 30 км 5/5 600 м
[Sc]
+24.1 +22.2 89 +31 +40 очень
душно
996.4 996.0
06 17.08 ЮВ 5 30 км 10/10 1000 м
[St]
+24.1 +22.0 88 +31 +31 очень
душно
996.4 996.0 +27.0
09 17.08 ЮВ 2 18 км 10/10 100 м
[St]
+20.5 +19.4 93 +25 +25 комфорт 997.3 996.9
12 17.08 штиль 0 18 км {морось} 10/10 100 м
[St]
+19.6 +18.5 93 +22 +22 комфорт 998.7 998.3 +27.0 0.0
15 17.08 штиль 0 18 км 10/10 100 м
[St]
+19.0 +17.9 93 +20 +20 1000.9 1000.5
18 17.08 штиль 0 8000 м слаб. морось 10/10 100 м
[St]
+18.7 +17.9 95 +20 +20 1002.0 1001.6 0.0
21 17.08 С 2 30 км 8/8 1000 м
[Sc]
+18.9 +17.3 90 +21 +21 комфорт 1002.8 1002.4 0.0
00 18.08 штиль 0 30 км 3/3 1000 м
[Sc]
+20.9 +18.4 86 +25 +33 комфорт 1004.8 1004.4 +18.3 0.0
03 18.08 ЮВ 2 28 км 10/10 1000 м
[Sc]
+22.1 +19.5 85 +28 +28 душно 1005.4 1005.0
06 18.08 ЮВ 2 20 км 10/10 1000 м
[Sc]
+21.6 +19.2 86 +27 +27 душно 1006.5 1006.1 +25.0
09 18.08 ЮВ 2 18 км 10/10 100 м
[St]
+19.7 +18.6 93 +23 +23 комфорт 1006.5 1006.1
12 18.08 штиль 0 18 км {морось} 10/10 100 м
[St]
+18.9 +18.4 97 +20 +20 1008.3 1007.9 +25.0 0.0
15 18.08 ЮВ 2 18 км 10/10 100 м
[St]
+18.7 +18.2 97 +20 +20 1009.4 1009.0
18 18.08 ЮВ 3 8000 м слаб. морось 10/10 100 м
[St]
+18.4 +18.1 98 +19 +19 1010.4 1010.0 0.0
21 18.08 штиль 0 20 км 10/10 100 м
[St]
+18.5 +18.2 98 +19 +19 1010.9 1010.5 0.0
00 19.08 ЮВ 1 8000 м слаб. морось 10/10 100 м
[St]
+18.9 +18.7 99 +22 +22 комфорт 1012.8 1012.4 +17.9 0.0
03 19.08 штиль 0 8000 м слаб. дождь 10/0 100 м
[As op]
+19.7 +19.2 97 +22 +27 комфорт 1013.0 1012.6 1
06 19.08 ЮВ 1 8000 м слаб. дождь 10/0 100 м
[As op]
+20.3 +19.5 95 +25 +28 комфорт 1012.3 1011.9 +21.5 0.1
09 19.08 ЮВ 1 8000 м слаб. дождь 10/0 100 м
[As op]
+19.7 +18.9 95 +24 +24 комфорт 1012.6 1012.2 0.0
12 19.08 ЮВ 1 8000 м слаб. дождь 10/0 100 м
[As op]
+18.9 +18.6 98 +22 +22 комфорт 1012.7 1012.3 +21.5 0.1
15 19.08 ЮВ 1 18 км {дождь} 10/10 600 м
[Sc]
+18.5 +18.0 97 +20 +20 1013.6 1013.2 0.0
18 19.08 штиль 0 8000 м слаб. морось 10/10 100 м
[St]
+18.3 +18.0 98 +19 +19 1013.3 1012.9 0.0
21 19.08 штиль 0 20 км 10/10 100 м
[Sc]
+18.3 +18.0 98 +19 +19 1013.2 1012.8 0.0
00 20.08 штиль 0 18 км 10/10 600 м
[Sc]
+18.9 +18.7 99 +20 +20 1013.3 1012.9 +17.8 0.0
03 20.08 ЮВ 3 26 км 10/6 600 м
[Sc Ac trans Ci sp]
+21.1 +19.9 93 +26 +29 душно 1012.9 1012.5
06 20.08 ЮВ 4 28 км 10/6 600 м
[Sc Ac trans Ci sp]
+21.8 +20.0 90 +27 +29 душно 1011.8 1011.4 +22.8
09 20.08 ЮВ 1 28 км 10/10 600 м
[Sc]
+21.3 +19.4 89 +26 +26 душно 1010.9 1010.5
12 20.08 ЮВ 1 28 км 10/10 600 м
[Sc]
+20.7 +19.0 90 +26 +26 душно 1012.0 1011.6 +23.0
15 20.08 ЮВ 2 28 км 10/10 600 м
[Sc]
+20.4 +19.3 93 +25 +25 комфорт 1011.4 1011.0
18 20.08 штиль 0 20 км 10/10 600 м
[Sc]
+19.9 +19.2 96 +23 +23 комфорт 1010.3 1009.9
21 20.08 ЮВ 1 8000 м слаб. дождь 10/0 100 м
[As op]
+20.1 +20.0 99 +25 +25 комфорт 1010.1 1009.7 1
00 21.08 Ю 3 8000 м слаб. дождь 10/0 100 м
[As op]
+20.3 +20.2 99 +25 +26 комфорт 1009.7 1009.3 +19.7 1
03 21.08 ЮВ 5 8000 м слаб. дождь 10/0 100 м
[As op]
+20.6 +20.4 99 +25 +27 комфорт 1008.6 1008.2 0.6
06 21.08 ЮЗ 3 8000 м слаб. дождь 10/0 100 м
[As op]
+21.1 +20.5 96 +26 +28 душно 1006.9 1006.5 +21.9 4
09 21.08 штиль 0 20 км 10/10 300 м
[Sc]
+21.5 +20.4 93 +27 +27 душно 1006.3 1005.9 0.0
12 21.08 штиль 0 28 км 10/10 600 м
[Sc]
+21.1 +19.4 90 +26 +26 душно 1007.1 1006.7 +22.4 4
15 21.08 ЮВ 1 28 км 10/10 600 м
[Sc]
+19.8 +19.5 98 +24 +24 комфорт 1007.4 1007.0 0.0
18 21.08 штиль 0 20 км 10/10 600 м
[Sc]
+18.0 +17.7 98 +18 +18 1006.4 1006.0
21 21.08 штиль 0 20 км 10/10 600 м
[Sc]
+17.7 +17.4 98 +18 +18 1006.2 1005.8
00 22.08 штиль 0 20 км {дождь} 10/10 600 м
[Sc]
+20.0 +19.5 97 +23 +23 комфорт 1006.0 1005.6 +17.3 0.1
03 22.08 ЮВ 2 28 км 8/5 1000 м
[Cu med, cong Ac trans]
+24.1 +21.2 84 +30 +36 очень
душно
1005.7 1005.3
06 22.08 ЮВ 6 30 км 8/8 1000 м
[Sc]
+21.5 +18.7 84 +26 +27 душно 1004.7 1004.3 +24.8

 

Местоположение метеостанции Сонбонг (КНДР): широта 42.32 долгота 130.40 высота над уровнем моря 3 м.

В архиве по умолчанию представлена погода в Сонбонге за последнюю неделю. Архивные данные за месяц целиком и за предыдущие месяцы, начиная с января 2011 года, Вы можете получить, выбрав интересующий диапазон дат из раскрывающегося списка и нажав кнопку "Ввод!".


*Определитесь, кто Вы:
робот инопланетянин человек

Внимание! Время в таблицах - всемирное. Для получения местного времени необходимо прибавить поправку, которая равна 9 ч.

Смотрите также архив погоды в соседних городах и на ближайших метеорологических станциях:

Погода в Посьете (Приморский край, Россия) (49 км)
Погода в Гамове (Приморский край, Россия) (72 км)
Погода в Чхонджине (КНДР) (77 км)
Погода в Яньцзи (Гирин, Китай) (96 км)
Погода в Барабаше (Приморский край, Россия) (127 км)
Погода на Мысе Назимова (Приморский край, Россия) (147 км)
Погода в Владивостоке (Приморский край, Россия) (151 км)
Погода в Самджиёне (КНДР) (182 км)
Погода в Полтавке (Приморский край, Россия) (204 км)
Погода в Находке (Приморский край, Россия) (204 км)

Пояснения к столбцам:

Ветер - указаны скорость ветра в м/с - средняя за 10 мин, порывы в срок и между сроками (в фигурных скобках) и направление, откуда дует ветер: С - северный, СВ - северо-восточный, В - восточный, ЮВ - юго-восточный, Ю - южный, ЮЗ - юго-западный, З - западный, СЗ - северо-западный.
Видимость - горизонтальная дальность видимости в метрах или километрах. При видимости от 1 до 10 км при отсутствии осадков обычно наблюдается дымка, при ухудшении видимости до 1 км и менее - туман. В сухую погоду видимость может ухудшаться дымом, пылью или мглою.
Явления - указаны атмосферные явления, наблюдавшиеся в срок или в последний час перед сроком; фигурными скобками обозначены явления, наблюдавшиеся между сроками (за 1-3 часа до срока); квадратными скобками обозначены град или гололедные отложения с указанием их диаметра в мм.
Облачность - указаны через наклонную черту общая и нижняя облачность в баллах и высота нижней границы облаков в метрах; квадратными скобками обозначены формы облаков: Ci - перистые, Cs - перисто-слоистые, Cc - перисто-кучевые, Ac - высококучевые, As - высокослоистые, Sc - слоисто-кучевые, Ns - слоисто-дождевые, Cu - кучевые, Cb - кучево-дождевые. Подробнее классификацию облаков см. в Атласе облаков (PDF).
T - Температура воздуха - температура, измеренная на высоте 2 м над землей.
Td - Температура точки росы - температура, при понижении до которой содержащийся в воздухе водяной пар достигнет насыщения.
f - Относительная влажность воздуха - влажноcть воздуха, измеренная на высоте 2 м над землей.
Te - Эффективная температура - температура, которую ощущает одетый по сезону человек в тени. Характеристика душности погоды. При расчете учитывается влияние влажности воздуха и скорости ветра на теплоощущения человека.
Tes - Эффективная температура на солнце - температура, которую ощущает человек, с поправкой на солнечный нагрев. Характеристика знойности погоды. Зависит от высоты солнца над горизонтом, облачности и скорости ветра. Ночью, в пасмурную погоду, а также при ветре 12 м/с и более поправка равна нулю.
P - Атмосферное давление - приведенное к уровню моря атмосферное давление.
Po - Атмосферное давление - измеренное на уровне метеостанции атмосферное давление.
Tmin - Минимальная температура - минимум температуры воздуха на высоте 2 м над землей.
Tmax - Максимальная температура - максимум температуры воздуха на высоте 2 м над землей.
R - Количество осадков - Количество выпавших осадков за период времени, мм. При наведении курсора мыши на число - период времени, за который выпало указанное количество осадков.
R24 - Количество осадков - Количество выпавших осадков за 24 часа, мм.
S - Снежный покров - Высота снежного покрова, см. При наведении курсора мыши на число - состояние снежного покрова и степень покрытия местности в баллах.